Regional Weather Roundup
Issued by NWS

Home | Current Version | Previous Version | Text Only | Print | Product List | Glossary On
Versions: 1 2 3 4 5 6 7 8 9 10 11 12 13 14 15 16 17 18 19 20 21 22 23 24 25 26 27 28 29 30 31 32 33 34 35 36 37 38 39 40 41 42 43 44 45 46 47 48 49 50
000
ASUS46 KPQR 301210
RWROR

OREGON REGIONAL WEATHER ROUNDUP
NATIONAL WEATHER SERVICE PORTLAND OR
500 AM PDT SUN AUG 30 2015

NOTE: "FAIR" INDICATES FEW OR NO CLOUDS BELOW 12,000 FEET WITH
NO SIGNIFICANT WEATHER AND/OR OBSTRUCTIONS TO VISIBILITY.

ORZ001>013-301300-
NORTHWEST OREGON


CITY           SKY/WX    TMP DP  RH WIND       PRES   REMARKS
ASTORIA        CLOUDY    59  56  89 S16G24    29.80R
6HR MIN TEMP:  59; 6HR MAX TEMP:  61; 6HR PCP:  0.02;

NEWPORT        CLOUDY    59  57  94 S18G24    29.92S
PORTLAND       LGT RAIN  60  58  92 S10       29.87R
6HR MIN TEMP:  59; 6HR MAX TEMP:  67; 6HR PCP:  0.25;

VANCOUVER WA   CLOUDY    60  56  86 SE5       29.86R
6HR MIN TEMP:  60; 6HR MAX TEMP:  67; 6HR PCP:  0.24;

SCAPPOOSE      CLOUDY    60  57  89 S5        29.84R
6HR MIN TEMP:  59; 6HR MAX TEMP:  64; 6HR PCP:  0.27;

HILLSBORO      CLOUDY    58  56  93 S10       29.85R
6HR MIN TEMP:  58; 6HR MAX TEMP:  66; 6HR PCP:  0.24;

AURORA         CLOUDY    58  56  93 S7        29.88R
6HR MIN TEMP:  58; 6HR MAX TEMP:  65; 6HR PCP:  0.44;

MCMINNVILLE    CLOUDY    59  56  89 S10       29.88R
6HR MIN TEMP:  59; 6HR MAX TEMP:  66; 6HR PCP:  0.35;

SALEM          MOCLDY    59  56  89 S12       29.88R
6HR MIN TEMP:  59; 6HR MAX TEMP:  65; 6HR PCP:  0.20;

CORVALLIS      PTCLDY    57  54  88 S9        29.93R
EUGENE         CLOUDY    58  55  90 S12       29.94S
6HR MIN TEMP:  58; 6HR MAX TEMP:  64; 6HR PCP:  0.07;

$$

ORZ021-028-301300-
SOUTHWEST OREGON


CITY           SKY/WX    TMP DP  RH WIND       PRES   REMARKS
NORTH BEND     CLOUDY    63  61  94 S9        29.96R
6HR MIN TEMP:  61; 6HR MAX TEMP:  64;

BROOKINGS      LGT RAIN  61  61 100 S9        30.01S FOG
ROSEBURG       CLOUDY    67  50  54 VRB7      29.95R
6HR MIN TEMP:  63; 6HR MAX TEMP:  67;

SEXTON SUMMIT  CLOUDY    48  48 100 S10       30.02R
6HR MIN TEMP:  49; 6HR MAX TEMP:  51; 6HR PCP: TRACE;

MEDFORD        CLOUDY    59  49  69 NE3       29.99R
6HR MIN TEMP:  59; 6HR MAX TEMP:  66;

$$

ORZ014>016-041-301300-
COLUMBIA GORGE


CITY           SKY/WX    TMP DP  RH WIND       PRES   REMARKS
TROUTDALE      LGT RAIN  60  56  86 SW8       29.88R
6HR MIN TEMP:  60; 6HR MAX TEMP:  66; 6HR PCP:  0.30;

THE DALLES     CLOUDY    61  55  81 NW8       29.83R
6HR MIN TEMP:  60; 6HR MAX TEMP:  66; 6HR PCP: TRACE;

$$

ORZ029>031-041-044-049-050-061>064-502-503-505>511-301300-
EASTERN OREGON


CITY           SKY/WX    TMP DP  RH WIND       PRES   REMARKS
REDMOND        MOCLDY    58  41  53 S16G24    29.91S
6HR MIN TEMP:  55; 6HR MAX TEMP:  61;

BEND           MOCLDY    55  39  54 S15       29.93S
PRINEVILLE     CLOUDY    57  41  54 S8G15     29.92S
KLAMATH FALLS  PTCLDY    46  42  86 S3        30.05R
6HR MIN TEMP:  44; 6HR MAX TEMP:  55;

LAKEVIEW       CLEAR     45  34  65 S10         N/A
HERMISTON      MOCLDY    53  45  74 E3        29.81F
6HR MIN TEMP:  51; 6HR MAX TEMP:  63;

PENDLETON      PTCLDY    51  42  71 SE3       29.84R
6HR MIN TEMP:  50; 6HR MAX TEMP:  61;

JOHN DAY       CLEAR     55  39  56 CALM      29.96R
MEACHAM        CLEAR     38  35  89 CALM      29.91S
6HR MIN TEMP:  38; 6HR MAX TEMP:  49;

LA GRANDE      CLEAR     46  30  53 CALM      29.91S
6HR MIN TEMP:  46; 6HR MAX TEMP:  61;

BAKER CITY     CLEAR     45  39  79 S3        29.93S
6HR MIN TEMP:  41; 6HR MAX TEMP:  56;

BURNS          PTCLDY    40  30  67 N5        30.01R
6HR MIN TEMP:  37; 6HR MAX TEMP:  58;

ROME             N/A     57  36  45 SE8       30.00R
6HR MIN TEMP:  57; 6HR MAX TEMP:  71;

ONTARIO        CLEAR     56  42  59 SW5       29.92R
6HR MIN TEMP:  56; 6HR MAX TEMP:  70;

$$



USA.gov is the U.S. government's official web portal to all federal, state and local government web resources and services.